TimeCDT,TemperatureF,Dew PointF,Humidity,Sea Level PressureIn,VisibilityMPH,Wind Direction,Wind SpeedMPH,Gust SpeedMPH,PrecipitationIn,Events,Conditions,WindDirDegrees,DateUTC
12:15 AM,83.5,77.9,83,30.03,10.0,SE,11.5,-,N/A,,Clear,140,2013-07-30 05:15:00
12:35 AM,83.3,77.9,84,30.03,10.0,SE,10.4,16.1,N/A,,Clear,140,2013-07-30 05:35:00
12:55 AM,83.1,77.7,84,30.03,10.0,SE,12.7,-,N/A,,Clear,140,2013-07-30 05:55:00
1:15 AM,82.8,77.7,85,30.03,10.0,SE,10.4,-,N/A,,Clear,140,2013-07-30 06:15:00
1:35 AM,82.6,77.5,85,30.03,10.0,SE,10.4,-,N/A,,Clear,140,2013-07-30 06:35:00
1:55 AM,82.4,77.5,85,30.03,10.0,SE,9.2,17.3,N/A,,Clear,140,2013-07-30 06:55:00
2:15 AM,81.9,77.4,86,30.02,10.0,SE,10.4,-,N/A,,Clear,140,2013-07-30 07:15:00
2:35 AM,81.9,77.4,86,30.02,10.0,SSE,11.5,-,N/A,,Clear,150,2013-07-30 07:35:00
2:55 AM,81.5,77.4,87,30.02,10.0,SSE,10.4,-,N/A,,Clear,150,2013-07-30 07:55:00
3:15 AM,81.1,77.2,88,30.01,10.0,SSE,8.1,-,N/A,,Clear,150,2013-07-30 08:15:00
3:35 AM,81.0,77.0,88,30.02,10.0,SSE,8.1,-,N/A,,Clear,150,2013-07-30 08:35:00
3:55 AM,80.8,77.0,88,30.01,10.0,SE,8.1,-,N/A,,Clear,140,2013-07-30 08:55:00
4:15 AM,80.6,77.0,89,30.01,10.0,SSE,9.2,-,N/A,,Clear,150,2013-07-30 09:15:00
4:35 AM,80.6,77.0,89,30.01,10.0,SSE,10.4,-,N/A,,Clear,150,2013-07-30 09:35:00
4:55 AM,80.2,76.8,89,30.01,10.0,SSE,5.8,-,N/A,,Scattered Clouds,150,2013-07-30 09:55:00
5:15 AM,80.2,76.6,89,30.02,10.0,SSE,4.6,-,N/A,,Overcast,150,2013-07-30 10:15:00
5:35 AM,79.7,76.5,90,30.03,10.0,SE,4.6,-,N/A,,Overcast,140,2013-07-30 10:35:00
5:55 AM,80.1,76.6,89,30.04,10.0,Calm,Calm,-,N/A,,Overcast,0,2013-07-30 10:55:00
6:15 AM,80.2,76.6,89,30.05,10.0,Calm,Calm,-,N/A,,Overcast,0,2013-07-30 11:15:00
6:35 AM,80.4,76.6,88,30.06,10.0,Calm,Calm,-,N/A,,Overcast,0,2013-07-30 11:35:00
6:55 AM,80.1,76.6,89,30.06,7.0,ESE,3.5,-,N/A,,Overcast,120,2013-07-30 11:55:00
7:15 AM,79.9,76.6,90,30.06,7.0,ESE,3.5,-,N/A,,Mostly Cloudy,110,2013-07-30 12:15:00
7:35 AM,79.7,76.6,90,30.06,7.0,ESE,3.5,-,N/A,,Mostly Cloudy,110,2013-07-30 12:35:00
7:55 AM,79.9,76.8,90,30.06,7.0,ESE,4.6,-,N/A,,Mostly Cloudy,110,2013-07-30 12:55:00
8:15 AM,80.6,77.0,89,30.06,7.0,ESE,3.5,-,N/A,,Overcast,110,2013-07-30 13:15:00
8:35 AM,82.0,77.2,85,30.06,7.0,SSE,4.6,-,N/A,,Mostly Cloudy,150,2013-07-30 13:35:00
8:55 AM,83.7,77.2,81,30.06,7.0,SSE,12.7,17.3,N/A,,Mostly Cloudy,150,2013-07-30 13:55:00
9:15 AM,84.9,76.8,77,30.07,10.0,SSE,9.2,-,N/A,,Mostly Cloudy,160,2013-07-30 14:15:00
9:35 AM,86.2,76.5,73,30.06,10.0,SSE,15.0,-,N/A,,Scattered Clouds,150,2013-07-30 14:35:00
9:55 AM,88.5,75.7,66,30.07,10.0,SSE,12.7,18.4,N/A,,Scattered Clouds,160,2013-07-30 14:55:00
10:15 AM,89.4,75.2,63,30.07,10.0,South,13.8,-,N/A,,Scattered Clouds,180,2013-07-30 15:15:00
10:35 AM,90.7,73.8,57,30.07,10.0,SSE,16.1,-,N/A,,Scattered Clouds,160,2013-07-30 15:35:00
10:55 AM,93.0,72.7,51,30.07,10.0,SSE,15.0,-,N/A,,Clear,160,2013-07-30 15:55:00
11:15 AM,93.6,71.6,49,30.07,10.0,SSE,12.7,20.7,N/A,,Clear,160,2013-07-30 16:15:00
11:55 AM,95.9,70.0,43,30.06,10.0,SSE,15.0,21.9,N/A,,Clear,160,2013-07-30 16:55:00
12:15 PM,96.6,68.9,40,30.05,10.0,South,15.0,20.7,N/A,,Clear,180,2013-07-30 17:15:00
12:35 PM,98.1,68.5,38,30.03,10.0,South,13.8,20.7,N/A,,Clear,170,2013-07-30 17:35:00
1:15 PM,99.7,67.3,35,30.02,10.0,SE,15.0,20.7,N/A,,Clear,140,2013-07-30 18:15:00
1:35 PM,100.4,64.8,31,30.01,10.0,SSE,20.7,24.2,N/A,,Clear,160,2013-07-30 18:35:00
1:55 PM,101.1,65.5,31,30.00,10.0,SE,19.6,25.3,N/A,,Clear,130,2013-07-30 18:55:00
2:15 PM,102.9,63.9,28,30.00,10.0,SSE,11.5,24.2,N/A,,Clear,150,2013-07-30 19:15:00
2:35 PM,102.9,63.5,28,29.99,10.0,South,13.8,23.0,N/A,,Clear,170,2013-07-30 19:35:00
2:55 PM,103.5,63.0,27,29.98,10.0,SSE,12.7,20.7,N/A,,Clear,160,2013-07-30 19:55:00
3:15 PM,103.6,63.1,27,29.97,10.0,SE,8.1,19.6,N/A,,Clear,140,2013-07-30 20:15:00
3:35 PM,104.2,60.8,24,29.97,10.0,SE,12.7,19.6,N/A,,Clear,140,2013-07-30 20:35:00
3:55 PM,105.1,59.9,23,29.96,10.0,South,13.8,20.7,N/A,,Clear,170,2013-07-30 20:55:00
4:15 PM,104.5,59.0,22,29.95,10.0,South,10.4,20.7,N/A,,Clear,170,2013-07-30 21:15:00
4:35 PM,104.7,57.7,21,29.95,10.0,South,8.1,18.4,N/A,,Clear,180,2013-07-30 21:35:00
4:55 PM,104.0,67.8,31,29.94,10.0,ESE,15.0,21.9,N/A,,Clear,110,2013-07-30 21:55:00
5:15 PM,102.2,68.9,34,29.94,10.0,SE,17.3,26.5,N/A,,Scattered Clouds,130,2013-07-30 22:15:00
5:35 PM,101.7,70.7,37,29.94,10.0,ESE,18.4,26.5,N/A,,Scattered Clouds,120,2013-07-30 22:35:00
5:55 PM,100.0,73.0,42,29.95,10.0,SE,20.7,26.5,N/A,,Clear,130,2013-07-30 22:55:00
6:15 PM,98.1,74.5,47,29.94,10.0,SE,18.4,27.6,N/A,,Clear,130,2013-07-30 23:15:00
6:35 PM,97.0,74.7,49,29.95,10.0,ESE,13.8,28.8,N/A,,Clear,110,2013-07-30 23:35:00
6:55 PM,95.9,74.7,50,29.96,10.0,ESE,17.3,23.0,N/A,,Clear,110,2013-07-30 23:55:00
7:15 PM,94.8,73.8,50,29.96,10.0,ESE,19.6,25.3,N/A,,Clear,110,2013-07-31 00:15:00
7:35 PM,93.4,73.4,52,29.97,10.0,ESE,12.7,23.0,N/A,,Clear,120,2013-07-31 00:35:00
7:55 PM,92.3,73.0,53,29.98,10.0,ESE,13.8,23.0,N/A,,Clear,110,2013-07-31 00:55:00
8:15 PM,90.5,74.3,59,29.98,10.0,ESE,12.7,21.9,N/A,,Scattered Clouds,110,2013-07-31 01:15:00
8:35 PM,89.2,75.6,64,29.99,10.0,ESE,13.8,18.4,N/A,,Scattered Clouds,120,2013-07-31 01:35:00
8:55 PM,88.0,76.1,68,30.00,10.0,ESE,13.8,17.3,N/A,,Scattered Clouds,120,2013-07-31 01:55:00
9:15 PM,86.9,76.1,70,30.01,10.0,ESE,9.2,-,N/A,,Clear,120,2013-07-31 02:15:00
9:35 PM,86.4,76.1,71,30.01,10.0,ESE,11.5,17.3,N/A,,Clear,120,2013-07-31 02:35:00
9:55 PM,85.6,75.7,72,30.02,10.0,SE,10.4,-,N/A,,Clear,130,2013-07-31 02:55:00
10:15 PM,85.1,75.4,73,30.02,10.0,SE,10.4,-,N/A,,Clear,130,2013-07-31 03:15:00
10:35 PM,84.7,74.8,72,30.03,10.0,SE,11.5,17.3,N/A,,Clear,130,2013-07-31 03:35:00
10:55 PM,84.4,75.2,74,30.03,10.0,SE,10.4,-,N/A,,Clear,130,2013-07-31 03:55:00
11:15 PM,83.8,75.2,75,30.04,10.0,SE,9.2,-,N/A,,Clear,130,2013-07-31 04:15:00
11:35 PM,83.3,75.2,76,30.04,10.0,SE,10.4,-,N/A,,Clear,130,2013-07-31 04:35:00
11:55 PM,82.8,75.4,78,30.05,10.0,SE,9.2,-,N/A,,Clear,130,2013-07-31 04:55:00